AirNav   Air Wisconsin Up To $57,000 Bonus
 
 1192 users online  

11Y Flying Feathers Airport
Chilton, Wisconsin, USA

GOING TO CHILTON?


FAA INFORMATION EFFECTIVE 16 JUNE 2022

Location

FAA Identifier: 11Y
Lat/Long: 44-03-40.2600N 088-11-41.7600W
44-03.671000N 088-11.696000W
44.0611833,-88.1949333
(estimated)
Elevation: 940 ft. / 287 m (estimated)
From city: 2 miles NW of CHILTON, WI
Time zone: UTC -5 (UTC -6 during Standard Time)
Zip code: 53014

Airport Operations

Airport use: Open to the public
Activation date: 06/2009
Control tower: no
ARTCC: CHICAGO CENTER
FSS: GREEN BAY FLIGHT SERVICE STATION
NOTAMs facility: GRB (NOTAM-D service available)
Attendance: UNATNDD
Wind indicator: yes
Segmented circle: no

Airport Communications

CTAF: 122.9
WX ASOS at OSH (16 nm W): PHONE 920-426-1644
WX AWOS-3 at ATW (18 nm NW): PHONE 920-832-2597

Nearby radio navigation aids

VOR radial/distance  VOR name  Freq  Var
OSHr073/16.1OSHKOSH VORTAC116.7502E
GRBr179/29.6GREEN BAY VORTAC115.5001E
BJBr356/(38.5)WEST BEND VOR109.8001W

 
NDB name  Hdg/Dist  Freq  Var  ID
KOOKY139/12.840702WAQ .- --.-

Airport Services

Airframe service: NONE
Powerplant service: NONE
Bottled oxygen: NONE
Bulk oxygen: NONE

Runway Information

Runway 18/36

Dimensions: 1000 x 60 ft. / 305 x 18 m
Surface: turf, in fair condition
Runway edge markings: RWY 18/36 MKD WITH ORANGE HALF BARRELS.
RUNWAY 18  RUNWAY 36
Traffic pattern: leftleft
Obstructions: none75 ft. trees, 750 ft. from runway, 100 ft. left of centerline, 10:1 slope to clear

Runway 9/27

Dimensions: 500 x 20 ft. / 152 x 6 m
Surface: turf, in fair condition
Runway edge markings: RWY 9/27 MKD WITH ORANGE HALF BARRELS.
RUNWAY 9  RUNWAY 27
Traffic pattern: leftleft
Runway end identifier lights: nono
Obstructions: 66 ft. tree, 1320 ft. from runway, 180 ft. left of centerline, 20:1 slope to clear25 ft. pline, 640 ft. from runway, 25:1 slope to clear

Airport Ownership and Management from official FAA records

Ownership: Privately-owned
Owner: DEAN HEIMERMANN
W3124 HICKORY HILLS RD
CHILTON, WI 53014
Phone (920) 849-2199
Manager: DEAN HEIMERMANN
W3124 HICKORY HILLS RD
CHILTON, WI 53014
Phone 920-849-2199

Airport Operational Statistics

Aircraft based on the field: 4
Single engine airplanes: 3
Multi engine airplanes: 1
    
Aircraft operations: avg 84/month *
99% local general aviation
1% transient general aviation
* for 12-month period ending 09 September 2019

Additional Remarks

FOR CD CTC CHICAGO ARTCC AT 630-906-8921.

Instrument Procedures

There are no published instrument procedures at 11Y.

Some nearby airports with instrument procedures:

8D1 - New Holstein Municipal Airport (8 nm SE)
KOSH - Wittman Regional Airport (16 nm W)
KATW - Appleton International Airport (18 nm NW)
KFLD - Fond Du Lac County Airport (22 nm SW)
KMTW - Manitowoc County Airport (23 nm E)
 
Loc | Ops | Rwys | IFR | FBO | Links
Com | Nav | Svcs | Stats | Notes
Aerial photo
No photo
 
Sectional chart

 
Airport distance calculator
Flying to Flying Feathers Airport? Find the distance to fly.

From to 11Y

Sunrise and sunset
Times for 05-Jul-2022
 Local
(UTC-5)
 Zulu
(UTC)
Morning civil twilight04:4109:41
Sunrise05:1710:17
Sunset20:3801:38
Evening civil twilight21:1402:14

Current date and time
Zulu (UTC)  06-Jul-2022 00:48:29
Local (UTC-5)  05-Jul-2022 19:48:29
 
METAR
KOSH 
16nm W 
052353Z 09008KT 10SM CLR 27/22 A2985 RMK AO2 SLP094 T02670217 10289 20256 55008
KATW 
18nm NW 
052345Z VRB04KT 10SM SCT030 28/21 A2986
KFLD 
22nm SW 
052353Z AUTO 07009KT 10SM SCT065 29/21 A2985 RMK AO2 SLP101 T02890206 10306 20278 55012
KSBM 
22nm SE 
052353Z AUTO 08006KT 10SM CLR 23/19 A2989 RMK AO2 SLP116 T02330189 10267 20233 55003
KMTW 
23nm E 
052356Z AUTO 13006KT 10SM CLR 21/18 A2989 RMK AO2 SLP121 T02060178 10256 20200 55008
KGRB 
25nm N 
052353Z 23003KT 10SM CLR 28/21 A2985 RMK AO2 SLP105 T02830206 10294 20250 58010
TAF
KATW 
18nm NW 
052051Z 0521/0618 01004KT P6SM BKN030 FM052200 VRB03KT P6SM SCT035 FM060300 06006KT P6SM OVC013 FM060600 05007KT P6SM OVC008 FM061600 06009KT P6SM OVC011
NOTAMs
Click for the latest NOTAMs
NOTAMs are issued by the DoD/FAA and will open in a separate window not controlled by AirNav.

 

 
 

Would you like to see your business listed on this page?

 If your business provides an interesting product or service to pilots, flight crews, aircraft, or users of the Flying Feathers Airport, you should consider listing it here.  To start the listing process, click on the button below
 
Add a business
 

Other Pages about Flying Feathers Airport

Update a link
 
Copyright © AirNav, LLC. All rights reserved. Privacy Policy  Contact